sat.trackr.live / text

‹ back to catalog

STARLINK-3457

NORAD 51754 · 2022-016AS

PAYLOAD ACTIVE UNKNOWN

§ Identity

Operator
Country
US
Launch date
2022-02-21
Launch site
AFETR
Launch vehicle
Mass (kg)
RCS (m²)

Purposes: comms

External: N2YO · Heavens-Above · Gunter

§ Orbital elements

Epoch: 2026-09-20T04:39:26.796960Z

Period
93.85 min
Inclination
53.1588°
Eccentricity
0.0001192
Mean motion
15.34385298 rev/d
Perigee alt
461.9 km
Apogee alt
463.6 km
Semi-major
6,840.9 km
B*
2.2600e-7
RAAN
140.8052°
Arg perigee
81.8607°
Mean anomaly
278.2531°
Rev number
25,327

§ Raw data

STARLINK-34571 51754U 22016AS  26263.19406015 -.00000369  00000+0  22600-6 0  99922 51754  53.1588 140.8052 0001192  81.8607 278.2531 15.34385298253272

JSON: /api/v1/satellites/51754 · /tle

For live sub-satellite position, see the globe view (requires WebGL).

§ Visibility from observer

Set your observer location to see the next 7 days of passes ≥ 10°. The values pass through the URL so the page stays shareable.

No JS? Fill the form by hand. The geolocation button needs JavaScript.